Location: ??????
(42.0089°N, 44.3281°E)
Time: 15:38:53
(UTC+00:00)

USA 229 - Pass Details

Date: 24 October 2021
Orbit: 946 x 1266 km, 63.4° (Epoch: 25 November)

Event Time Altitude Azimuth Distance (km) Brightness Sun altitude
Rises 15:36:49 0° 212° (SSW) 3,616 7.0 -17.2°
Reaches altitude 10° 15:39:18 10° 213° (SSW) 2,692 6.2 -17.7°
Maximum altitude 15:45:36 88° 126° (SE) 1,006 3.5 -18.9°
Enters shadow 15:52:03 11° 36° (NE) 2,768 5.5 -20.1°
